Location: Berua Church
(35.0423°N, 88.5987°W)
Time: 13:24:21
(UTC+00:00)

OAO 2 Rocket - Pass Details

Date: 08 December 2019
Orbit: 676 x 746 km, 35.0° (Epoch: 19 January)

Event Time Altitude Azimuth Distance (km) Brightness Sun altitude
Rises 23:25:22 0° 258° (WSW) 3,034 8.7 -8.8°
Reaches altitude 10° 23:27:44 10° 257° (WSW) 2,128 7.4 -9.3°
Maximum altitude 23:32:43 81° 171° (S) 707 3.3 -10.2°
Enters shadow 23:37:09 14° 85° (E) 1,922 5.0 -11.1°
